This is the latest recevied weather packets stored in our database for station/object KA3ZXO. If no packets are shown the sender has not sent any weather packets the latest 10 day(s).
| Time | Temp. | Humidity | Pressure | Rain* | Wind** | Luminosity | Snow |
|---|---|---|---|---|---|---|---|
| 1777750708 | 15° C | 52% | 1011.6 hPa | 0 mm | - | 135 W/m² | - |
| 1777750106 | 15° C | 52% | 1011.8 hPa | 0 mm | - | 168 W/m² | - |
| 1777749501 | 15° C | 53% | 1011.9 hPa | 0 mm | - | 343 W/m² | - |
| 1777748902 | 15° C | 52% | 1011.9 hPa | 0 mm | - | 199 W/m² | - |
| 1777748300 | 14.44° C | 53% | 1012.3 hPa | 0 mm | - | 166 W/m² | - |
| 1777747700 | 15° C | 53% | 1012.4 hPa | 0 mm | - | 168 W/m² | - |
| 1777747098 | 15.56° C | 48% | 1012.2 hPa | 0 mm | - | 185 W/m² | - |
| 1777746494 | 14.44° C | 50% | 1012.5 hPa | 0 mm | - | 454 W/m² | - |
| 1777745893 | 15° C | 52% | 1012.8 hPa | 0 mm | - | 451 W/m² | - |
| 1777745289 | 14.44° C | 53% | 1012.9 hPa | 0 mm | - | 282 W/m² | - |
| 1777744688 | 14.44° C | 53% | 1013.1 hPa | 0 mm | - | 151 W/m² | - |
| 1777744085 | 15° C | 53% | 1013.3 hPa | 0 mm | - | 192 W/m² | - |
| 1777743485 | 14.44° C | 52% | 1013.4 hPa | 0 mm | - | 224 W/m² | - |
| 1777742880 | 13.89° C | 57% | 1013.5 hPa | 0 mm | - | 190 W/m² | - |
| 1777742278 | 13.33° C | 57% | 1013.6 hPa | 0 mm | - | 120 W/m² | - |
| 1777741678 | 13.33° C | 54% | 1013.5 hPa | 0 mm | - | 120 W/m² | - |
| 1777741077 | 13.33° C | 54% | 1013.6 hPa | 0 mm | - | 141 W/m² | - |
| 1777740476 | 13.33° C | 55% | 1013.5 hPa | 0 mm | - | 112 W/m² | - |
| 1777739875 | 13.33° C | 55% | 1013.9 hPa | 0 mm | - | 124 W/m² | - |
| 1777739275 | 13.33° C | 59% | 1013.9 hPa | 0 mm | - | 143 W/m² | - |
| 1777738675 | 12.78° C | 59% | 1013.6 hPa | 0 mm | - | 139 W/m² | - |
| 1777738069 | 13.33° C | 61% | 1013.9 hPa | 0 mm | - | 153 W/m² | - |
| 1777737466 | 12.78° C | 60% | 1013.9 hPa | 0 mm | - | 133 W/m² | - |
| 1777736865 | 12.22° C | 60% | 1013.8 hPa | 0 mm | - | 111 W/m² | - |
| 1777736252 | 12.22° C | 61% | 1014.1 hPa | 0 mm | - | 109 W/m² | - |
* Rain latest hour (hover to see other rain measurements)
** Current wind speed in m/s (hover to see current wind gust speed)